FW1892 Weather Reports


time (UTC)temp
C
wind
direction
speed
KPH
gust
KPH
rain 1hr
cm
rain 24hr
cm
rain mn
cm
humidity
%
barometer
mb
20260504222455 22 227 3.2 14.5 0.00 0.00 0.00 30 1004.3
20260504221952 22 315 6.4 9.7 0.00 0.00 0.00 29 1004.3
20260504221449 22 280 9.7 11.3 0.00 0.00 0.00 29 1004.2
20260504220946 22 206 6.4 20.9 0.00 0.00 0.00 29 1004.3
20260504220442 22 94 3.2 12.9 0.00 0.00 0.00 29 1004.3
20260504215939 22 278 9.7 16.1 0.00 0.00 0.00 29 1004.2
20260504215436 22 276 4.8 20.9 0.00 0.00 0.00 28 1004.4
20260504214933 22 290 3.2 11.3 0.00 0.00 0.00 29 1004.2
20260504214429 22 260 4.8 9.7 0.00 0.00 0.00 29 1004.3
20260504213926 22 310 14.5 17.7 0.00 0.00 0.00 29 1004.1
20260504213422 22 187 4.8 6.4 0.00 0.00 0.00 28 1004.4
20260504212920 22 163 6.4 16.1 0.00 0.00 0.00 28 1004.2
20260504212415 23 312 12.9 24.1 0.00 0.00 0.00 28 1004.2
20260504211913 22 336 16.1 17.7 0.00 0.00 0.00 28 1004.4
20260504211409 23 290 11.3 16.1 0.00 0.00 0.00 28 1004.4
20260504210906 23 266 4.8 11.3 0.00 0.00 0.00 27 1004.3
20260504210403 23 291 3.2 6.4 0.00 0.00 0.00 27 1004.3
20260504205900 23 139 6.4 11.3 0.00 0.00 0.00 27 1004.2
20260504205358 22 235 8.0 12.9 0.00 0.00 0.00 28 1004.2
20260504204856 22 306 9.7 14.5 0.00 0.00 0.00 28 1004.4
20260504204354 22 320 6.4 11.3 0.00 0.00 0.00 29 1004.3
20260504203854 22 184 6.4 11.3 0.00 0.00 0.00 29 1004.2
20260504203350 21 202 1.6 9.7 0.00 0.00 0.00 30 1004.4
20260504202846 22 291 3.2 17.7 0.00 0.00 0.00 28 1004.4
20260504202343 22 254 6.4 17.7 0.00 0.00 0.00 28 1004.4
20260504201839 22 238 11.3 22.5 0.00 0.00 0.00 28 1004.4
20260504201337 22 302 3.2 17.7 0.00 0.00 0.00 29 1004.3
20260504200834 22 294 6.4 12.9 0.00 0.00 0.00 29 1004.6
20260504200331 23 216 3.2 11.3 0.00 0.00 0.00 29 1004.3
20260504195827 22 241 3.2 11.3 0.00 0.00 0.00 29 1004.3
20260504195323 22 230 22.5 27.4 0.00 0.00 0.00 27 1004.5
20260504194820 22 235 4.8 12.9 0.00 0.00 0.00 29 1004.5
20260504194316 23 309 17.7 29.0 0.00 0.00 0.00 27 1004.4
20260504193812 22 244 6.4 9.7 0.00 0.00 0.00 28 1004.3
20260504193309 22 330 14.5 17.7 0.00 0.00 0.00 28 1004.5
20260504192808 23 168 3.2 11.3 0.00 0.00 0.00 28 1004.5
20260504192305 22 208 8.0 20.9 0.00 0.00 0.00 29 1004.5
20260504191804 22 270 6.4 12.9 0.00 0.00 0.00 29 1004.4
20260504191301 22 262 8.0 11.3 0.00 0.00 0.00 29 1004.5
20260504190756 22 269 8.0 14.5 0.00 0.00 0.00 28 1004.5
20260504190253 21 235 6.4 12.9 0.00 0.00 0.00 29 1004.4
20260504185749 21 284 6.4 9.7 0.00 0.00 0.00 29 1004.6
20260504185246 22 265 8.0 25.7 0.00 0.00 0.00 28 1004.5
20260504184742 22 294 14.5 24.1 0.00 0.00 0.00 28 1004.8
20260504184238 21 260 1.6 14.5 0.00 0.00 0.00 30 1004.8
20260504183734 22 111 3.2 9.7 0.00 0.00 0.00 29 1004.6
20260504183231 21 298 8.0 11.3 0.00 0.00 0.00 28 1004.6
20260504182729 22 283 4.8 20.9 0.00 0.00 0.00 27 1004.8
20260504182226 22 202 4.8 20.9 0.00 0.00 0.00 27 1004.9
20260504181724 22 221 4.8 16.1 0.00 0.00 0.00 29 1004.8
20260504181221 22 207 8.0 11.3 0.00 0.00 0.00 27 1004.8
20260504180720 22 177 4.8 24.1 0.00 0.00 0.00 29 1005.0
20260504180218 22 276 6.4 12.9 0.00 0.00 0.00 28 1004.9
20260504175716 22 223 9.7 25.7 0.00 0.00 0.00 27 1004.7
20260504175212 22 206 4.8 6.4 0.00 0.00 0.00 29 1004.8
20260504174710 22 277 6.4 14.5 0.00 0.00 0.00 27 1004.8
20260504174208 21 296 1.6 9.7 0.00 0.00 0.00 29 1005.1
20260504173704 21 238 9.7 17.7 0.00 0.00 0.00 29 1005.0
20260504173201 21 224 6.4 30.6 0.00 0.00 0.00 28 1004.9
20260504172658 21 207 3.2 11.3 0.00 0.00 0.00 29 1004.9
20260504172154 21 126 4.8 11.3 0.00 0.00 0.00 30 1005.0
20260504171650 21 287 6.4 20.9 0.00 0.00 0.00 28 1005.1
20260504171148 21 267 6.4 12.9 0.00 0.00 0.00 29 1005.3
20260504170644 21 271 8.0 11.3 0.00 0.00 0.00 28 1005.2
20260504170142 21 236 3.2 14.5 0.00 0.00 0.00 30 1005.3
20260504151021 19 256 1.6 12.9 0.00 0.00 0.00 33 1006.3
20260504150519 19 187 4.8 12.9 0.00 0.00 0.00 33 1006.4
20260504140945 16 229 6.4 25.7 0.00 0.00 0.00 38 1007.3
20260504140442 16 196 11.3 16.1 0.00 0.00 0.00 38 1007.5
20260504130406 15 187 1.6 9.7 0.00 0.00 0.00 40 1007.7
20260504110253 6 127 0.0 1.6 0.00 0.00 0.00 66 1008.3
20260504100216 5 135 0.0 0.0 0.00 0.00 0.00 69 1008.3
20260504090139 5 189 0.0 0.0 0.00 0.00 0.00 72 1008.3
20260504081609 5 144 0.0 0.0 0.00 0.00 0.00 77 1008.3
20260504081105 5 152 0.0 0.0 0.00 0.00 0.00 76 1008.4
20260504080602 5 107 0.0 0.0 0.00 0.00 0.00 76 1008.3
20260504050415 1 130 0.0 0.0 0.00 0.00 0.00 87 1008.3
20260504045912 1 132 0.0 0.0 0.00 0.00 0.00 88 1008.3
20260504045408 1 131 0.0 0.0 0.00 0.00 0.00 88 1008.5
20260504044904 0 118 0.0 0.0 0.00 0.00 0.00 88 1008.3
20260504044401 0 131 0.0 0.0 0.00 0.00 0.00 87 1008.3
20260504043859 0 140 0.0 0.0 0.00 0.00 0.00 87 1008.4
20260504043356 0 141 0.0 0.0 0.00 0.00 0.00 87 1008.3
20260504042853 0 139 0.0 0.0 0.00 0.00 0.00 87 1008.5
20260504042349 0 152 0.0 0.0 0.00 0.00 0.00 87 1008.4
20260504041846 0 111 0.0 0.0 0.00 0.00 0.00 86 1008.4
20260504041342 0 111 0.0 0.0 0.00 0.00 0.00 86 1008.4
20260504040838 0 111 0.0 0.0 0.00 0.00 0.00 86 1008.2
20260504040336 1 121 0.0 0.0 0.00 0.00 0.00 85 1008.2
20260504035831 1 121 0.0 0.0 0.00 0.03 0.03 85 1008.1
20260504035330 1 123 0.0 0.0 0.00 0.03 0.03 84 1008.4
20260504034826 1 111 0.0 0.0 0.00 0.03 0.03 84 1008.2
20260504034324 1 110 0.0 0.0 0.00 0.03 0.03 83 1008.2
20260504033821 1 110 0.0 0.0 0.00 0.03 0.03 83 1008.2
20260504033319 1 110 0.0 0.0 0.00 0.03 0.03 82 1008.0
20260504032815 1 112 0.0 0.0 0.00 0.03 0.03 82 1008.1
20260504032312 1 113 0.0 0.0 0.00 0.03 0.03 81 1008.1
20260504031809 1 110 0.0 0.0 0.00 0.03 0.03 81 1008.3
20260504031306 1 110 0.0 0.0 0.00 0.03 0.03 80 1008.2
20260504030803 1 108 0.0 0.0 0.00 0.03 0.03 80 1008.1
20260504030300 2 106 0.0 0.0 0.00 0.03 0.03 79 1008.3
20260504025756 2 118 0.0 0.0 0.00 0.03 0.03 79 1008.1
20260504025253 2 130 0.0 0.0 0.00 0.03 0.03 79 1008.2
20260504024749 2 114 0.0 0.0 0.00 0.03 0.03 78 1008.2
20260504024246 2 123 0.0 0.0 0.00 0.03 0.03 78 1008.2
20260504023743 2 124 0.0 0.0 0.00 0.03 0.03 78 1007.9
20260504023239 2 109 0.0 0.0 0.00 0.03 0.03 77 1008.0
20260504022735 2 114 0.0 0.0 0.00 0.03 0.03 77 1008.1
20260504022232 2 114 0.0 0.0 0.00 0.03 0.03 76 1008.1
20260504021729 2 110 0.0 0.0 0.00 0.03 0.03 76 1008.0
20260504021226 2 134 0.0 0.0 0.00 0.03 0.03 75 1008.0
20260504020723 3 134 0.0 0.0 0.00 0.03 0.03 75 1008.1
20260504020219 3 117 0.0 0.0 0.00 0.03 0.03 75 1007.9
20260504015716 3 117 0.0 0.0 0.00 0.03 0.03 74 1008.0
20260504015212 3 118 0.0 0.0 0.00 0.03 0.03 74 1007.9
20260504014708 3 118 0.0 0.0 0.00 0.03 0.03 74 1008.0
20260504014205 3 117 0.0 0.0 0.00 0.03 0.03 73 1007.9
20260504013703 3 116 0.0 0.0 0.00 0.03 0.03 73 1007.8
20260504013200 3 114 0.0 0.0 0.00 0.03 0.03 72 1007.8
20260504012656 3 144 0.0 0.0 0.00 0.03 0.03 71 1007.8
20260504012154 4 111 0.0 0.0 0.00 0.03 0.03 71 1007.6
20260504011651 4 111 0.0 0.0 0.00 0.03 0.03 70 1007.7
20260504011148 4 146 0.0 0.0 0.00 0.03 0.03 70 1007.6
20260504010643 4 170 0.0 0.0 0.00 0.03 0.03 70 1007.5
20260504010139 5 145 0.0 0.0 0.00 0.03 0.03 69 1007.4
20260504005637 5 146 0.0 0.0 0.00 0.03 0.03 68 1007.5
20260504005133 5 114 0.0 0.0 0.00 0.03 0.03 67 1007.4
20260504004631 5 127 0.0 0.0 0.00 0.03 0.03 66 1007.3
20260504004128 6 211 0.0 1.6 0.00 0.03 0.03 64 1007.3
20260504003624 6 130 0.0 1.6 0.00 0.03 0.03 62 1007.1
20260504003121 6 125 0.0 1.6 0.00 0.03 0.03 58 1007.3
20260504002618 7 120 0.0 0.0 0.00 0.03 0.03 55 1007.1
20260504002116 7 132 0.0 0.0 0.00 0.03 0.03 52 1007.1
20260504001613 7 130 0.0 0.0 0.00 0.03 0.03 51 1007.0
20260504001109 8 135 0.0 0.0 0.00 0.03 0.03 49 1006.8
20260504000607 8 262 0.0 1.6 0.00 0.03 0.03 47 1006.8
20260504000104 8 183 1.6 6.4 0.00 0.03 0.03 47 1006.7
20260503235602 8 143 0.0 1.6 0.00 0.03 0.03 46 1006.8
20260503235058 8 195 1.6 3.2 0.00 0.03 0.03 45 1006.4
20260503234556 9 286 1.6 4.8 0.00 0.03 0.03 44 1006.9
20260503234054 9 214 3.2 14.5 0.00 0.03 0.03 43 1006.8
20260503233550 9 240 1.6 3.2 0.00 0.03 0.03 43 1006.6
20260503233046 9 317 4.8 11.3 0.00 0.03 0.03 42 1006.6
20260503232544 10 270 6.4 6.4 0.00 0.03 0.03 42 1006.4
20260503232041 10 90 3.2 9.7 0.00 0.03 0.03 42 1006.6
20260503231539 10 255 1.6 9.7 0.00 0.03 0.03 42 1006.5
20260503231035 10 249 4.8 12.9 0.00 0.03 0.03 40 1006.4
20260503230532 10 261 6.4 17.7 0.00 0.03 0.03 40 1006.2
20260503230030 10 26 1.6 6.4 0.00 0.03 0.03 40 1006.1
20260503225527 10 231 3.2 6.4 0.00 0.03 0.03 40 1006.2
20260503225027 11 183 3.2 16.1 0.00 0.03 0.03 38 1006.1
20260503224525 11 328 6.4 20.9 0.00 0.03 0.03 38 1006.2
20260503224022 11 328 9.7 16.1 0.00 0.03 0.03 37 1006.1
20260503223520 11 241 9.7 14.5 0.00 0.03 0.03 38 1006.1
20260503223015 10 249 9.7 11.3 0.00 0.03 0.03 39 1006.0